Weather History for K96D - January, 2014

Change the Weather History Date:

Thursday, January 9, 2014

  Actual Average (KGAF) Record (KGAF)
Temperature  
Mean Temperature 12 °F -  
Max Temperature 26 °F 10 °F 46 °F (2012)
Min Temperature -2 °F -8 °F -34 °F (1993)
Degree Days  
Heating Degree Days 53    
Moisture  
Dew Point 13 °F    
Average Humidity 93    
Maximum Humidity 100    
Minimum Humidity 78    
Precipitation  
Precipitation 0.00 in - - ()
Sea Level Pressure  
Sea Level Pressure 29.70 in    
Wind  
Wind Speed 11 mph (SSE)    
Max Wind Speed 16 mph    
Max Gust Speed 22 mph    
Visibility 10 miles    
Events      
Averages and records for this station are not official NWS values.
T = Trace of Precipitation, MM = Missing Value Source: NWS Daily Summary

Daily Weather History Graph

Daily Weather History Graph

Search for Another Location

Airport or City:

Trip Planner

Search our weather history database for the weather conditions in past years. The results will help you decide how hot, cold, wet, or windy it might be!

Date:

Astronomy

Jan. 09, 2014 Rise Set
Actual Time 8:23 AM CST 4:54 PM CST
Civil Twilight 7:47 AM CST 5:30 PM CST
Nautical Twilight 7:07 AM CST 6:10 PM CST
Astronomical Twilight 6:29 AM CST 6:48 PM CST
Moon 12:33 PM CST (1/9) 2:19 AM CST (1/9)
Length of Visible Light 9h 43m
Length of Day
8h 31m
Waxing Gibbous, 66% of the Moon is Illuminated
Jan 9
Waxing Gibbous
Jan 15
Full
Jan 23
Last Quarter
Jan 30
New
Feb 6
First Quarter

Hourly Weather History & Observations

Time (CST) Temp. Windchill Dew Point Humidity Pressure Visibility Wind Dir Wind Speed Gust Speed Precip Events Conditions
12:15 AM -2.2 °F -22.9 °F -7.6 °F 78% 30.00 in 10.0 mi SSE 16.1 mph 21.9 mph N/A   Overcast
12:35 AM -0.4 °F -19.9 °F -5.8 °F 78% 29.98 in - SSE 15.0 mph - N/A   Overcast
12:55 AM -0.4 °F -19.2 °F -4.0 °F 85% 29.96 in 9.0 mi SSE 13.8 mph - N/A   Overcast
1:15 AM -0.4 °F -17.6 °F -4.0 °F 85% 29.95 in - SSE 11.5 mph 18.4 mph N/A   Overcast
1:35 AM 1.4 °F -16.1 °F -2.2 °F 85% 29.94 in - SSE 12.7 mph - N/A   Overcast
1:55 AM 1.4 °F -17.6 °F -2.2 °F 85% 29.92 in - SSE 15.0 mph - N/A   Overcast
2:15 AM 1.4 °F -18.2 °F -0.4 °F 92% 29.91 in - SSE 16.1 mph - N/A   Overcast
2:35 AM 3.2 °F -13.9 °F -0.4 °F 85% 29.89 in 10.0 mi SSE 12.7 mph - N/A   Overcast
2:55 AM 3.2 °F -12.2 °F -0.4 °F 85% 29.88 in 9.0 mi SE 10.4 mph - N/A   Overcast
3:15 AM 3.2 °F -13.9 °F -0.4 °F 85% 29.86 in 10.0 mi SSE 12.7 mph 17.3 mph N/A   Overcast
3:35 AM 5.0 °F -11.6 °F 1.4 °F 85% 29.84 in 10.0 mi SSE 12.7 mph - N/A   Overcast
3:55 AM 5.0 °F -9.1 °F 1.4 °F 85% 29.84 in 10.0 mi SSE 9.2 mph - N/A   Overcast
4:15 AM 5.0 °F -11.6 °F 3.2 °F 92% 29.81 in 10.0 mi SE 12.7 mph - N/A   Overcast
4:35 AM 6.8 °F -9.3 °F 5.0 °F 92% 29.80 in 10.0 mi SE 12.7 mph - N/A   Overcast
4:55 AM 6.8 °F -9.3 °F 6.8 °F 100% 29.78 in 10.0 mi SE 12.7 mph - N/A   Overcast
5:15 AM 8.6 °F -1.3 °F 6.8 °F 92% 29.78 in 10.0 mi SE 5.8 mph - N/A   Overcast
5:35 AM 8.6 °F -7.7 °F 8.6 °F 100% 29.76 in 10.0 mi SE 13.8 mph - N/A   Overcast
5:55 AM 10.4 °F -4.1 °F 10.4 °F 100% 29.75 in 10.0 mi SE 11.5 mph - N/A   Overcast
6:15 AM 14.0 °F 0.5 °F 12.2 °F 93% 29.74 in 10.0 mi South 11.5 mph - N/A   Overcast
6:35 AM 15.8 °F 4.2 °F 14.0 °F 93% 29.73 in - South 9.2 mph 17.3 mph N/A   Unknown
6:55 AM 15.8 °F 2.7 °F 14.0 °F 93% 29.71 in 10.0 mi SE 11.5 mph - N/A   Overcast
7:15 AM 17.6 °F 5.7 °F 15.8 °F 93% 29.70 in 10.0 mi SSE 10.4 mph - N/A   Overcast
7:35 AM 19.4 °F 7.2 °F 17.6 °F 93% 29.70 in 10.0 mi South 11.5 mph 17.3 mph N/A   Overcast
7:55 AM 19.4 °F 7.2 °F 17.6 °F 93% 29.69 in 10.0 mi South 11.5 mph 20.7 mph N/A   Overcast
8:15 AM 19.4 °F 7.9 °F 17.6 °F 93% 29.69 in 10.0 mi South 10.4 mph 16.1 mph N/A   Overcast
8:35 AM 19.4 °F 8.6 °F 17.6 °F 93% 29.69 in 10.0 mi South 9.2 mph - N/A   Mostly Cloudy
8:55 AM 17.6 °F 9.3 °F 15.8 °F 93% 29.70 in 10.0 mi SSE 5.8 mph - N/A   Scattered Clouds
9:15 AM 15.8 °F 7.2 °F 14.0 °F 93% 29.70 in 10.0 mi SE 5.8 mph - N/A   Overcast
9:35 AM 15.8 °F 6.1 °F 14.0 °F 93% 29.70 in 10.0 mi SE 6.9 mph - N/A   Scattered Clouds
9:55 AM 17.6 °F 8.2 °F 15.8 °F 93% 29.70 in 10.0 mi ESE 6.9 mph - N/A   Partly Cloudy
10:15 AM 15.8 °F 4.2 °F 14.0 °F 93% 29.71 in 10.0 mi ESE 9.2 mph - N/A   Clear
10:35 AM 15.8 °F 3.4 °F 15.8 °F 100% 29.70 in 10.0 mi SE 10.4 mph - N/A   Clear
10:55 AM 15.8 °F 5.1 °F 15.8 °F 100% 29.70 in 10.0 mi SSE 8.1 mph - N/A   Clear
11:15 AM 17.6 °F 6.4 °F 17.6 °F 100% 29.69 in 10.0 mi South 9.2 mph - N/A   Clear
11:35 AM 23.0 °F 12.4 °F 19.4 °F 86% 29.68 in 10.0 mi SSW 10.4 mph - N/A   Clear
11:55 AM 24.8 °F 14.6 °F 19.4 °F 80% 29.67 in 10.0 mi South 10.4 mph - N/A   Clear
12:15 PM 23.0 °F 13.9 °F 19.4 °F 86% 29.65 in 10.0 mi SSW 8.1 mph 17.3 mph N/A   Clear
12:35 PM 24.8 °F 13.4 °F 21.2 °F 86% 29.65 in 10.0 mi SSW 12.7 mph 20.7 mph N/A   Clear
12:55 PM 24.8 °F 13.4 °F 23.0 °F 93% 29.64 in 10.0 mi SW 12.7 mph 18.4 mph N/A   Clear
1:15 PM 26.6 °F 14.7 °F 23.0 °F 86% 29.64 in 10.0 mi SSW 15.0 mph 18.4 mph N/A   Clear
1:35 PM 26.6 °F 15.7 °F 23.0 °F 86% 29.63 in 10.0 mi SSW 12.7 mph - N/A   Clear
1:55 PM 26.6 °F 15.7 °F 23.0 °F 86% 29.62 in 10.0 mi SSW 12.7 mph - N/A   Clear
2:35 PM 26.6 °F 20.0 °F 23.0 °F 86% 29.62 in 10.0 mi South 5.8 mph - N/A   Clear
2:55 PM 26.6 °F 15.7 °F 23.0 °F 86% 29.62 in 10.0 mi SSW 12.7 mph - N/A   Clear
3:15 PM 26.6 °F 17.5 °F 23.0 °F 86% 29.62 in 10.0 mi SSW 9.2 mph - N/A   Clear
3:35 PM 26.6 °F 19.1 °F 23.0 °F 86% 29.62 in 10.0 mi South 6.9 mph - N/A   Clear
3:55 PM 24.8 °F 19.1 °F 23.0 °F 93% 29.63 in 10.0 mi South 4.6 mph - N/A   Clear
4:15 PM 24.8 °F 17.9 °F 23.0 °F 93% 29.62 in 10.0 mi South 5.8 mph - N/A   Clear
5:15 PM 19.4 °F 7.9 °F 19.4 °F 100% 29.62 in 10.0 mi SSE 10.4 mph - N/A   Clear
5:35 PM 19.4 °F 7.9 °F 19.4 °F 100% 29.62 in 10.0 mi SSE 10.4 mph - N/A   Clear
5:55 PM 21.2 °F 10.1 °F 21.2 °F 100% 29.62 in - SSE 10.4 mph - N/A   Unknown
6:15 PM 19.4 °F 7.9 °F 19.4 °F 100% 29.61 in - SSE 10.4 mph - N/A   Unknown
6:35 PM 19.4 °F 8.6 °F 19.4 °F 100% 29.61 in - South 9.2 mph - N/A   Unknown
6:55 PM 19.4 °F 9.5 °F 19.4 °F 100% 29.60 in - South 8.1 mph - N/A   Unknown
7:15 PM 17.6 °F 9.3 °F 17.6 °F 100% 29.60 in 10.0 mi SSE 5.8 mph - N/A   Clear
7:35 PM 17.6 °F 10.7 °F 17.6 °F 100% 29.60 in 10.0 mi SSE 4.6 mph - N/A   Clear
7:55 PM 17.6 °F 12.3 °F 17.6 °F 100% 29.59 in 10.0 mi SE 3.5 mph - N/A   Clear
8:15 PM 15.8 °F 6.1 °F 15.8 °F 100% 29.59 in 10.0 mi SE 6.9 mph - N/A   Clear
8:35 PM 15.8 °F 8.6 °F 15.8 °F 100% 29.59 in 10.0 mi SE 4.6 mph - N/A   Clear
8:55 PM 14.0 °F 5.1 °F 14.0 °F 100% 29.58 in 10.0 mi SE 5.8 mph - N/A   Clear
9:15 PM 14.0 °F 3.9 °F 14.0 °F 100% 29.58 in 10.0 mi SE 6.9 mph - N/A   Clear
9:35 PM 14.0 °F 2.0 °F 14.0 °F 100% 29.57 in 9.0 mi SE 9.2 mph - N/A   Clear
9:55 PM 14.0 °F 2.9 °F 14.0 °F 100% 29.57 in 8.0 mi SE 8.1 mph - N/A   Clear
10:15 PM 14.0 °F 2.0 °F 14.0 °F 100% 29.57 in 8.0 mi SE 9.2 mph - N/A   Clear
10:35 PM 14.0 °F 5.1 °F 14.0 °F 100% 29.56 in 9.0 mi SE 5.8 mph - N/A   Clear
10:55 PM 14.0 °F 2.0 °F 14.0 °F 100% 29.56 in 9.0 mi SSE 9.2 mph - N/A   Clear
11:15 PM 14.0 °F 3.9 °F 14.0 °F 100% 29.56 in 9.0 mi SSE 6.9 mph - N/A   Clear
11:35 PM 10.4 °F -1.5 °F 10.4 °F 100% 29.54 in 8.0 mi SE 8.1 mph - N/A   Clear
11:55 PM 12.2 °F 1.7 °F 12.2 °F 100% 29.54 in - SSE 6.9 mph - N/A   Unknown